DW4466 Weather Reports


Display with metric or nautical units.
time (UTC)temp
F
wind
direction
speed
MPH
gust
MPH
rain 1hr
in
rain 24hr
in
rain mn
in
humidity
%
barometer
mb
20260901112557 72 318 0.0 2.0 0.00 0.00 0.00 99 1014.9
20260901112501 72 318 0.0 2.0 0.00 0.00 0.00 99 1014.9
20260901112036 72 284 0.0 0.0 0.00 0.00 0.00 99 1014.9
20260901111508 72 284 0.0 0.0 0.00 0.00 0.00 99 1014.9
20260901111029 72 284 0.0 0.0 0.00 0.00 0.00 99 1014.9
20260901110559 72 284 0.0 0.0 0.00 0.00 0.00 99 1015.0
20260901110026 72 284 0.0 0.0 0.00 0.00 0.00 99 1014.9
20260901105558 72 284 0.0 0.0 0.00 0.00 0.00 99 1014.9
20260901105036 72 284 0.0 0.0 0.00 0.00 0.00 99 1014.9
20260901104507 72 284 0.0 0.0 0.00 0.00 0.00 99 1014.9
20260901104032 72 284 0.0 0.0 0.00 0.00 0.00 99 1014.8
20260901103509 72 42 0.0 0.0 0.00 0.00 0.00 99 1014.8
20260901103043 72 42 0.0 0.0 0.00 0.00 0.00 99 1014.7
20260901102514 72 42 0.0 0.0 0.00 0.00 0.00 98 1014.8
20260901102053 72 42 0.0 0.0 0.00 0.00 0.00 98 1014.8
20260901101531 72 42 0.0 0.0 0.00 0.00 0.00 98 1014.8
20260901101053 72 42 0.0 0.0 0.00 0.00 0.00 98 1014.8
20260901100526 72 42 0.0 0.0 0.00 0.00 0.00 98 1014.8
20260901095534 72 271 0.0 0.0 0.00 0.00 0.00 99 1014.6
20260901095003 72 271 0.0 0.0 0.00 0.00 0.00 98 1014.7
20260901094540 72 271 0.0 0.0 0.00 0.00 0.00 99 1014.7
20260901094050 72 271 0.0 0.0 0.00 0.00 0.00 99 1014.8
20260901093519 72 271 0.0 0.0 0.00 0.00 0.00 99 1014.8
20260901093052 72 271 0.0 0.0 0.00 0.00 0.00 99 1014.7
20260901092521 72 271 0.0 0.0 0.00 0.00 0.00 98 1014.7
20260901092054 72 271 0.0 0.0 0.00 0.00 0.00 98 1014.7
20260901091521 72 271 0.0 0.0 0.00 0.00 0.00 98 1014.6
20260901091053 72 271 0.0 0.0 0.00 0.00 0.00 98 1014.6
20260901090505 72 271 0.0 0.0 0.00 0.00 0.00 98 1014.6
20260901090048 72 271 0.0 0.0 0.00 0.00 0.00 99 1014.6
20260901085516 72 261 0.0 0.0 0.00 0.00 0.00 99 1014.7
20260901085047 72 5 0.0 0.0 0.00 0.00 0.00 98 1015.0
20260901084521 72 5 0.0 0.0 0.00 0.00 0.00 98 1015.0
20260901084053 72 5 0.0 0.0 0.00 0.00 0.00 98 1015.1
20260901083530 72 5 0.0 0.0 0.00 0.00 0.00 99 1015.1
20260901083100 72 5 0.0 0.0 0.00 0.00 0.00 98 1015.1
20260901083002 72 5 0.0 0.0 0.00 0.00 0.00 98 1015.1
20260901082517 72 5 0.0 0.0 0.00 0.00 0.00 98 1015.3
20260901082053 72 5 0.0 0.0 0.00 0.00 0.00 98 1015.3
20260901081523 72 5 0.0 0.0 0.00 0.00 0.00 98 1015.2
20260901081055 73 300 0.0 0.0 0.00 0.00 0.00 98 1015.2
20260901080533 73 300 0.0 0.0 0.00 0.00 0.00 98 1015.0
20260901080051 73 341 0.0 1.0 0.00 0.00 0.00 98 1014.9
20260901075523 73 341 0.0 2.0 0.00 0.00 0.00 98 1015.0
20260901075055 73 329 0.0 2.0 0.00 0.00 0.00 98 1015.0
20260901074531 72 326 0.0 0.0 0.00 0.00 0.00 98 1014.9
20260901074004 72 327 0.0 0.0 0.00 0.00 0.00 98 1014.9
20260901073519 72 327 0.0 0.0 0.00 0.00 0.00 98 1014.9
20260901073059 73 259 0.0 0.0 0.00 0.00 0.00 98 1014.9
20260901072523 73 259 0.0 0.0 0.00 0.00 0.00 98 1015.0
20260901072057 73 259 0.0 0.0 0.00 0.00 0.00 98 1014.9
20260901071533 73 265 0.0 0.0 0.00 0.00 0.00 98 1014.9
20260901071045 73 248 0.0 0.0 0.00 0.00 0.00 98 1015.0
20260901070517 73 249 0.0 0.0 0.00 0.00 0.00 98 1015.0
20260901065523 73 281 0.0 0.0 0.00 0.00 0.00 98 1015.1
20260901065059 73 281 0.0 0.0 0.00 0.00 0.00 98 1015.1
20260901065004 73 281 0.0 0.0 0.00 0.00 0.00 98 1015.1
20260901064535 73 281 0.0 0.0 0.00 0.00 0.00 98 1015.2
20260901064047 73 281 0.0 0.0 0.00 0.00 0.00 98 1015.2
20260901063518 73 281 0.0 0.0 0.00 0.00 0.00 98 1015.2
20260901063049 73 281 0.0 0.0 0.00 0.00 0.00 98 1015.2
20260901062519 73 281 0.0 0.0 0.00 0.00 0.00 98 1015.3
20260901062055 73 281 0.0 0.0 0.00 0.00 0.00 98 1015.3
20260901061529 73 285 0.0 0.0 0.00 0.00 0.00 98 1015.4
20260901061042 73 276 0.0 0.0 0.00 0.00 0.00 98 1015.6
20260901060514 73 276 0.0 0.0 0.00 0.00 0.00 98 1015.6
20260901060045 73 276 0.0 0.0 0.00 0.00 0.00 98 1015.6
20260901055520 73 276 0.0 0.0 0.00 0.00 0.00 98 1015.7
20260901055054 73 276 0.0 0.0 0.00 0.00 0.00 98 1015.7
20260901054527 73 276 0.0 0.0 0.00 0.00 0.00 98 1015.7
20260901054005 73 276 0.0 0.0 0.00 0.00 0.00 98 1015.8
20260901053542 73 276 0.0 0.0 0.00 0.00 0.00 98 1015.8
20260901053018 73 276 0.0 0.0 0.00 0.00 0.00 98 1015.9
20260901052553 73 276 0.0 0.0 0.00 0.00 0.00 98 1016.0
20260901052020 73 276 0.0 0.0 0.00 0.00 0.00 98 1015.9
20260901051555 73 276 0.0 0.0 0.00 0.00 0.00 98 1016.0
20260901051012 73 276 0.0 0.0 0.00 0.00 0.00 98 1016.0
20260901050547 73 276 0.0 1.0 0.00 0.00 0.00 98 1016.1
20260901050015 74 276 0.0 0.0 0.00 0.00 0.00 97 1016.1
20260901045546 74 276 0.0 0.0 0.00 0.00 0.00 98 1016.1
20260901045020 74 276 0.0 2.0 0.00 0.00 0.00 98 1016.1
20260901044600 74 276 0.0 2.0 0.00 0.00 0.00 98 1016.1
20260901044031 74 276 0.0 0.0 0.00 0.00 0.00 97 1016.1
20260901043559 74 276 0.0 0.0 0.00 0.00 0.00 97 1016.0
20260901043501 74 276 0.0 0.0 0.00 0.00 0.00 97 1016.0
20260901043029 74 276 0.0 0.0 0.00 0.00 0.00 97 1016.1
20260901042506 74 276 0.0 1.0 0.00 0.00 0.00 97 1016.2
20260901042040 74 276 0.0 2.0 0.00 0.00 0.00 97 1016.1
20260901041523 74 270 0.0 2.0 0.00 0.00 0.00 97 1016.2
20260901041052 74 272 0.0 2.0 0.00 0.00 0.00 97 1016.4
20260901040603 74 290 0.0 2.0 0.00 0.00 0.00 97 1016.4
20260901040503 74 290 0.0 2.0 0.00 0.00 0.00 97 1016.3
20260901040038 74 287 0.0 0.0 0.00 0.00 0.00 97 1016.5
20260901035506 74 287 0.0 0.0 0.00 0.00 0.00 97 1016.3
20260901035038 74 286 0.0 0.0 0.00 0.00 0.00 97 1016.4
20260901034517 74 286 0.0 0.0 0.00 0.00 0.00 97 1016.5
20260901034046 74 286 0.0 0.0 0.00 0.00 0.00 97 1016.5
20260901033520 74 286 0.0 0.0 0.00 0.00 0.00 97 1016.4
20260901033115 74 286 0.0 0.0 0.00 0.00 0.00 97 1016.4
20260901032530 74 286 0.0 0.0 0.00 0.00 0.00 97 1016.4
20260901032006 74 286 0.0 0.0 0.00 0.00 0.00 97 1016.4
20260901031541 74 286 0.0 0.0 0.00 0.00 0.00 97 1016.4
20260901031010 74 286 0.0 0.0 0.00 0.00 0.00 97 1016.6
20260901030542 74 286 0.0 0.0 0.00 0.00 0.00 97 1016.6
20260901030025 74 286 0.0 0.0 0.00 0.00 0.00 97 1016.6
20260901025547 74 286 0.0 0.0 0.00 0.00 0.00 97 1016.7
20260901025015 74 286 0.0 0.0 0.00 0.00 0.00 97 1016.8
20260901024547 74 286 0.0 0.0 0.00 0.00 0.00 97 1016.7
20260901024017 74 286 0.0 0.0 0.00 0.00 0.00 97 1016.7
20260901023548 74 286 0.0 0.0 0.00 0.00 0.00 97 1016.7
20260901023022 74 286 0.0 0.0 0.00 0.00 0.00 97 1016.7
20260901022552 74 286 0.0 0.0 0.00 0.00 0.00 97 1016.5
20260901022032 74 286 0.0 0.0 0.00 0.00 0.00 96 1016.5
20260901021603 74 286 0.0 0.0 0.00 0.00 0.00 96 1016.6
20260901021026 74 286 0.0 0.0 0.00 0.00 0.00 96 1016.6
20260901020601 74 286 0.0 0.0 0.00 0.00 0.00 96 1016.6
20260901020501 74 286 0.0 0.0 0.00 0.00 0.00 96 1016.6
20260901020035 74 286 0.0 0.0 0.00 0.00 0.00 95 1016.7
20260901015506 74 286 0.0 0.0 0.00 0.00 0.00 95 1016.8
20260901015040 74 286 0.0 0.0 0.00 0.00 0.00 95 1016.7
20260901014512 74 286 0.0 0.0 0.00 0.00 0.00 95 1016.6
20260901014028 75 286 0.0 0.0 0.00 0.00 0.00 94 1016.5
20260901013509 75 286 0.0 0.0 0.00 0.00 0.00 94 1016.6
20260901013052 75 286 0.0 0.0 0.00 0.00 0.00 94 1016.6
20260901012516 75 286 0.0 0.0 0.00 0.00 0.00 94 1016.4
20260901012047 75 286 0.0 0.0 0.00 0.00 0.00 94 1016.3
20260901011525 76 286 0.0 0.0 0.00 0.00 0.00 93 1016.2
20260901011058 76 286 0.0 0.0 0.00 0.00 0.00 93 1016.2
20260901011002 76 286 0.0 0.0 0.00 0.00 0.00 93 1016.1
20260901010536 76 286 0.0 0.0 0.00 0.00 0.00 93 1016.2
20260901010016 76 286 0.0 0.0 0.00 0.00 0.00 93 1016.3
20260901005542 76 286 0.0 0.0 0.00 0.00 0.00 93 1016.3
20260901005017 76 286 0.0 0.0 0.00 0.00 0.00 92 1016.0
20260901004546 76 286 0.0 0.0 0.00 0.00 0.00 92 1016.1
20260901004023 77 286 0.0 0.0 0.00 0.00 0.00 92 1016.0
20260901003600 77 286 0.0 0.0 0.00 0.00 0.00 92 1016.1
20260901003045 77 286 0.0 0.0 0.00 0.00 0.00 91 1016.1
20260901002602 77 277 0.0 0.0 0.00 0.00 0.00 91 1015.9
20260901002504 77 292 0.0 0.0 0.00 0.00 0.00 91 1016.0
20260901002036 77 298 0.0 0.0 0.00 0.00 0.00 90 1016.0
20260901001552 77 298 0.0 0.0 0.00 0.00 0.00 90 1015.9
20260901001027 78 298 0.0 0.0 0.00 0.00 0.00 90 1015.7
20260901000558 78 298 0.0 0.0 0.00 0.00 0.00 89 1015.7
20260901000501 78 298 0.0 0.0 0.00 0.00 0.00 89 1015.7
20260901000035 78 298 0.0 0.0 0.00 0.00 0.00 89 1015.8
20260831235504 79 298 0.0 0.0 0.00 0.00 0.00 88 1015.6
20260831235040 79 298 0.0 0.0 0.00 0.00 0.00 88 1015.6
20260831234600 79 298 0.0 0.0 0.00 0.00 0.00 88 1015.6
20260831234026 79 298 0.0 0.0 0.00 0.00 0.00 88 1015.7
20260831233506 79 298 0.0 0.0 0.00 0.00 0.00 87 1015.8
20260831233037 80 298 0.0 0.0 0.00 0.06 0.00 88 1015.8
20260831232511 80 298 0.0 0.0 0.00 0.06 0.00 87 1015.8
20260831232027 80 298 0.0 0.0 0.00 0.06 0.00 87 1015.8
20260831231600 80 298 0.0 0.0 0.00 0.06 0.00 86 1015.8
20260831231031 80 298 0.0 0.0 0.00 0.06 0.00 86 1015.8
20260831230508 80 298 0.0 0.0 0.00 0.06 0.00 86 1015.9
20260831230041 80 298 0.0 0.0 0.00 0.06 0.00 86 1015.8
20260831225556 80 298 0.0 0.0 0.00 0.06 0.00 86 1015.9
20260831225027 81 298 0.0 0.0 0.00 0.06 0.00 86 1016.1
20260831224600 81 298 0.0 0.0 0.00 0.06 0.00 86 1016.1
20260831224501 81 298 0.0 0.0 0.00 0.06 0.00 86 1016.1
20260831224034 81 298 0.0 0.0 0.00 0.06 0.00 85 1016.0
20260831223505 81 298 0.0 0.0 0.00 0.06 0.00 84 1016.1
20260831223043 81 298 0.0 0.0 0.00 0.28 0.00 84 1016.0
20260831222512 81 298 0.0 0.0 0.00 0.28 0.00 83 1016.0
20260831222025 82 298 0.0 2.0 0.00 0.28 0.00 83 1016.1
20260831221608 82 298 0.0 2.0 0.00 0.28 0.00 82 1016.1
20260831221504 82 282 0.0 3.0 0.00 0.28 0.00 82 1016.1
20260831221038 82 254 0.0 3.0 0.00 0.28 0.00 81 1016.2
20260831220509 82 236 0.0 0.0 0.00 0.28 0.00 82 1016.3
20260831220039 82 245 0.0 0.0 0.00 0.28 0.00 81 1016.4
20260831215510 82 245 0.0 0.0 0.00 0.28 0.00 81 1016.3
20260831215046 82 245 0.0 0.0 0.00 0.28 0.00 82 1016.4
20260831214515 81 245 0.0 0.0 0.00 0.28 0.00 82 1016.3
20260831214050 81 245 0.0 0.0 0.00 0.28 0.00 83 1016.3
20260831213521 81 232 0.0 0.0 0.00 0.28 0.00 83 1016.2
20260831213057 81 256 0.0 0.0 0.00 0.28 0.00 83 1016.2
20260831212532 81 280 0.0 0.0 0.00 0.28 0.00 83 1016.2
20260831212100 81 280 0.0 0.0 0.00 0.28 0.00 83 1016.4
20260831211514 81 280 0.0 0.0 0.00 0.28 0.00 83 1016.4
20260831211046 81 280 0.0 0.0 0.00 0.28 0.00 84 1016.4
20260831210523 81 280 0.0 0.0 0.00 0.28 0.00 83 1016.4
20260831210053 81 280 0.0 0.0 0.00 0.28 0.00 83 1016.5
20260831205529 81 277 0.0 0.0 0.00 0.28 0.00 83 1016.5
20260831205005 81 277 0.0 0.0 0.00 0.28 0.00 83 1016.5
20260831204544 81 44 0.0 0.0 0.00 0.28 0.00 82 1016.5
20260831204007 81 44 0.0 0.0 0.00 0.28 0.00 84 1016.6
20260831203542 81 44 0.0 0.0 0.00 0.28 0.00 84 1016.6
20260831203017 81 44 0.0 0.0 0.00 0.28 0.00 83 1016.6
20260831202547 81 44 0.0 0.0 0.00 0.28 0.00 81 1016.8
20260831202022 81 44 0.0 0.0 0.00 0.28 0.00 81 1017.0
20260831201549 81 44 0.0 0.0 0.00 0.28 0.00 82 1017.0
20260831201016 81 86 0.0 0.0 0.00 0.28 0.00 82 1016.9
20260831200545 81 85 0.0 0.0 0.00 0.28 0.00 80 1016.8
20260831200020 81 94 0.0 0.0 0.00 0.28 0.00 81 1016.8
20260831195549 81 48 0.0 0.0 0.00 0.28 0.00 79 1016.9
20260831195030 82 48 0.0 0.0 0.00 0.28 0.00 80 1016.9
20260831194609 82 307 0.0 0.0 0.00 0.28 0.00 80 1016.9
20260831194029 82 307 0.0 0.0 0.00 0.28 0.00 77 1016.9
20260831193505 82 307 0.0 0.0 0.00 0.28 0.00 76 1017.1
20260831193036 82 307 0.0 0.0 0.00 0.28 0.00 78 1017.1
20260831192511 82 307 0.0 0.0 0.00 0.28 0.00 80 1017.0
20260831192044 81 307 0.0 0.0 0.00 0.28 0.00 78 1016.9
20260831191505 81 307 0.0 0.0 0.00 0.28 0.00 80 1016.9
20260831191039 81 290 0.0 0.0 0.00 0.28 0.00 80 1017.2
20260831190515 81 302 0.0 0.0 0.00 0.28 0.00 80 1017.1
20260831190056 81 353 0.0 0.0 0.00 0.28 0.00 81 1017.3
20260831185519 81 353 0.0 0.0 0.00 0.28 0.00 81 1017.4
20260831185051 81 42 0.0 0.0 0.00 0.28 0.00 82 1017.5
20260831184524 80 43 0.0 0.0 0.00 0.28 0.00 82 1017.5
20260831184039 81 42 0.0 0.0 0.00 0.28 0.00 82 1017.5
20260831183509 81 32 0.0 0.0 0.00 0.28 0.00 81 1017.5
20260831183041 81 14 0.0 0.0 0.00 0.28 0.00 79 1017.4
20260831182509 81 342 0.0 0.0 0.00 0.28 0.00 80 1017.4
20260831182041 81 342 0.0 0.0 0.00 0.28 0.00 77 1017.4
20260831181509 82 342 0.0 0.0 0.00 0.28 0.00 78 1017.4
20260831181022 82 321 0.0 0.0 0.00 0.28 0.00 77 1017.4
20260831180558 82 321 0.0 0.0 0.00 0.28 0.00 76 1017.5
20260831180035 82 321 0.0 0.0 0.00 0.28 0.00 78 1017.5
20260831175506 82 225 0.0 0.0 0.00 0.28 0.00 79 1017.5
20260831175043 82 4 0.0 3.0 0.00 0.28 0.00 78 1017.6
20260831174509 82 350 1.0 3.0 0.00 0.28 0.00 79 1017.5
20260831174023 82 285 1.0 5.0 0.00 0.28 0.00 78 1017.5
20260831173557 82 308 2.0 5.0 0.00 0.28 0.00 77 1017.5
20260831173033 82 283 0.0 3.0 0.00 0.28 0.00 79 1017.4
20260831172504 82 279 1.0 3.0 0.00 0.28 0.00 79 1017.5
20260831172025 82 298 0.0 4.0 0.00 0.28 0.00 79 1017.7
20260831171538 82 222 2.0 4.0 0.00 0.28 0.00 77 1017.7
20260831171007 82 228 2.0 4.0 0.00 0.28 0.00 79 1017.7
20260831170542 81 119 0.0 3.0 0.00 0.28 0.00 78 1017.9
20260831170013 82 68 0.0 3.0 0.00 0.28 0.00 78 1017.9
20260831165546 82 3 0.0 3.0 0.00 0.28 0.00 77 1017.9
20260831165024 82 354 1.0 4.0 0.00 0.28 0.00 77 1017.7
20260831164554 82 299 1.0 4.0 0.00 0.28 0.00 78 1017.7
20260831164028 82 196 0.0 4.0 0.00 0.28 0.00 78 1017.9
20260831163506 82 175 1.0 5.0 0.00 0.28 0.00 78 1017.9
20260831163042 81 29 2.0 5.0 0.00 0.28 0.00 80 1018.0
20260831162558 81 133 0.0 3.0 0.00 0.28 0.00 81 1018.1
20260831162028 81 201 0.0 4.0 0.00 0.28 0.00 81 1018.1
20260831161505 80 217 1.0 4.0 0.00 0.28 0.00 83 1018.1
20260831161040 80 111 1.0 4.0 0.00 0.28 0.00 81 1018.2
20260831160512 80 77 1.0 6.0 0.00 0.28 0.00 81 1018.3
20260831160043 80 219 2.0 6.0 0.00 0.28 0.00 81 1018.3
20260831155515 80 158 1.0 8.0 0.00 0.28 0.00 83 1018.3
20260831155046 80 111 4.0 8.0 0.00 0.28 0.00 80 1018.3
20260831154519 80 86 2.0 7.0 0.00 0.28 0.00 82 1018.3
20260831154055 80 152 3.0 6.0 0.00 0.28 0.00 81 1018.2
20260831153525 80 194 2.0 6.0 0.00 0.28 0.00 82 1018.3
20260831153052 79 102 1.0 4.0 0.00 0.28 0.00 84 1018.1
20260831152508 79 230 1.0 6.0 0.00 0.28 0.00 83 1018.3
20260831152040 79 109 3.0 8.0 0.00 0.28 0.00 82 1018.3
20260831151508 79 73 3.0 8.0 0.00 0.28 0.00 82 1018.4
20260831151040 79 138 3.0 7.0 0.00 0.28 0.00 83 1018.4
20260831150508 79 181 3.0 8.0 0.00 0.28 0.00 82 1018.3
20260831150045 79 109 2.0 8.0 0.00 0.28 0.00 82 1018.4
20260831145514 80 69 2.0 6.0 0.00 0.28 0.00 82 1018.3
20260831145051 79 251 0.0 7.0 0.00 0.28 0.00 84 1018.2
20260831144522 79 225 1.0 6.0 0.00 0.28 0.00 85 1018.2
20260831144048 78 241 1.0 8.0 0.00 0.28 0.00 85 1018.1
20260831143514 78 138 1.0 10.0 0.00 0.28 0.00 85 1018.1
20260831143046 78 225 3.0 10.0 0.00 0.28 0.00 86 1018.1
20260831142521 77 128 4.0 9.0 0.00 0.28 0.00 85 1018.0
20260831142053 77 117 4.0 8.0 0.00 0.28 0.00 84 1018.1
20260831141522 77 92 4.0 9.0 0.00 0.28 0.00 84 1018.1
20260831141059 77 138 0.0 5.0 0.00 0.28 0.00 88 1018.1
20260831140534 77 92 2.0 6.0 0.00 0.28 0.00 88 1018.2
20260831140007 76 116 3.0 8.0 0.00 0.28 0.00 88 1018.2
20260831135534 76 116 5.0 8.0 0.00 0.28 0.00 87 1018.3
20260831135009 75 82 3.0 6.0 0.00 0.28 0.00 89 1018.2
20260831134540 75 116 2.0 9.0 0.00 0.28 0.00 88 1018.2
20260831134010 75 128 4.0 7.0 0.00 0.28 0.00 89 1018.2
20260831133529 75 66 2.0 5.0 0.00 0.28 0.00 90 1018.2
20260831133004 74 90 2.0 5.0 0.00 0.28 0.00 91 1018.1
20260831132536 74 103 1.0 5.0 0.00 0.28 0.00 92 1018.2
20260831132010 74 114 2.0 6.0 0.00 0.28 0.00 93 1018.1
20260831131548 74 147 2.0 6.0 0.00 0.28 0.00 94 1018.1
20260831131056 73 150 1.0 5.0 0.00 0.28 0.00 97 1018.2
20260831130526 73 114 2.0 3.0 0.00 0.28 0.00 98 1018.2
20260831130101 72 138 0.0 3.0 0.00 0.28 0.00 98 1018.2
20260831130006 72 138 0.0 3.0 0.00 0.28 0.00 99 1018.2
20260831125540 72 90 2.0 3.0 0.00 0.28 0.00 99 1018.3
20260831125014 71 128 1.0 4.0 0.00 0.28 0.00 99 1018.2
20260831124551 71 143 2.0 4.0 0.00 0.28 0.00 99 1018.0
20260831124059 71 112 2.0 4.0 0.00 0.28 0.00 99 1018.1
20260831124002 71 128 2.0 4.0 0.00 0.28 0.00 99 1018.1
20260831123536 71 128 1.0 4.0 0.00 0.28 0.00 99 1018.2
20260831123004 71 122 2.0 5.0 0.00 0.28 0.00 99 1018.2
20260831122542 71 78 2.0 5.0 0.00 0.28 0.00 100 1018.2
20260831122010 71 104 0.0 2.0 0.00 0.28 0.00 100 1018.1
20260831121544 70 155 0.0 2.0 0.00 0.28 0.00 100 1018.0
20260831121014 70 133 0.0 2.0 0.00 0.28 0.00 100 1017.9
20260831120548 70 94 0.0 2.0 0.00 0.28 0.00 100 1017.9
20260831120030 69 82 0.0 3.0 0.00 0.28 0.00 99 1017.9
20260831115551 69 82 1.0 3.0 0.00 0.28 0.00 99 1018.1
20260831115028 69 88 1.0 3.0 0.00 0.28 0.00 99 1018.1
20260831114542 69 50 0.0 0.0 0.00 0.28 0.00 99 1018.2
20260831114016 68 89 0.0 0.0 0.00 0.28 0.00 99 1018.0
20260831113550 68 89 0.0 0.0 0.00 0.28 0.00 99 1017.9
20260831113021 68 89 0.0 0.0 0.00 0.28 0.00 99 1017.9